Time,TemperatureF,DewpointF,PressureIn,WindDirection,WindDirectionDegrees,WindSpeedMPH,WindSpeedGustMPH,Humidity,HourlyPrecipIn,Conditions,Clouds,dailyrainin,SoftwareType,DateUTC
2013-10-21 00:06:00,51.3,51.0,30.36,ESE,114,0.0,-999.0,100,-99.99,,,0.00,weatherlink.com 1.10,2013-10-20 21:06:00,
2013-10-21 00:21:00,51.0,51.0,30.36,ESE,119,2.0,-999.0,100,-99.99,,,0.00,weatherlink.com 1.10,2013-10-20 21:21:00,
2013-10-21 00:36:00,50.7,51.0,30.36,SE,126,0.0,-999.0,100,-99.99,,,0.00,weatherlink.com 1.10,2013-10-20 21:36:00,
2013-10-21 00:51:00,50.7,51.0,30.36,ESE,121,3.0,-999.0,100,-99.99,,,0.00,weatherlink.com 1.10,2013-10-20 21:51:00,
2013-10-21 01:06:00,50.7,51.0,30.35,ESE,117,0.0,-999.0,100,-99.99,,,0.00,weatherlink.com 1.10,2013-10-20 22:06:00,
2013-10-21 01:21:00,50.7,51.0,30.35,ESE,117,0.0,-999.0,100,-99.99,,,0.00,weatherlink.com 1.10,2013-10-20 22:21:00,
2013-10-21 01:36:00,50.7,51.0,30.34,ESE,117,0.0,-999.0,100,-99.99,,,0.00,weatherlink.com 1.10,2013-10-20 22:36:00,
2013-10-21 01:51:00,50.2,50.0,30.34,ESE,117,1.0,-999.0,100,-99.99,,,0.00,weatherlink.com 1.10,2013-10-20 22:51:00,
2013-10-21 02:06:00,50.1,50.0,30.34,ESE,117,2.0,-999.0,100,-99.99,,,0.00,weatherlink.com 1.10,2013-10-20 23:06:00,
2013-10-21 02:21:00,49.8,50.0,30.34,ESE,120,0.0,-999.0,100,-99.99,,,0.00,weatherlink.com 1.10,2013-10-20 23:21:00,
2013-10-21 02:36:00,49.6,50.0,30.33,ESE,120,0.0,-999.0,100,-99.99,,,0.00,weatherlink.com 1.10,2013-10-20 23:36:00,
2013-10-21 02:51:00,50.4,50.0,30.33,ESE,120,0.0,-999.0,100,-99.99,,,0.00,weatherlink.com 1.10,2013-10-20 23:51:00,
2013-10-21 03:06:00,50.4,50.0,30.32,ESE,120,0.0,-999.0,100,-99.99,,,0.00,weatherlink.com 1.10,2013-10-21 00:06:00,
2013-10-21 03:21:00,49.9,50.0,30.32,ESE,120,0.0,-999.0,100,-99.99,,,0.00,weatherlink.com 1.10,2013-10-21 00:21:00,
2013-10-21 03:36:00,49.2,49.0,30.31,ESE,120,0.0,-999.0,100,-99.99,,,0.00,weatherlink.com 1.10,2013-10-21 00:36:00,
2013-10-21 03:51:00,48.8,49.0,30.31,ESE,120,0.0,-999.0,100,-99.99,,,0.00,weatherlink.com 1.10,2013-10-21 00:51:00,
2013-10-21 04:06:00,48.5,49.0,30.30,ESE,120,0.0,-999.0,100,-99.99,,,0.00,weatherlink.com 1.10,2013-10-21 01:06:00,
2013-10-21 04:21:00,48.5,49.0,30.30,ESE,120,0.0,-999.0,100,-99.99,,,0.00,weatherlink.com 1.10,2013-10-21 01:21:00,
2013-10-21 04:36:00,48.8,49.0,30.30,ESE,120,0.0,-999.0,100,-99.99,,,0.00,weatherlink.com 1.10,2013-10-21 01:36:00,
2013-10-21 04:51:00,48.8,49.0,30.30,ESE,120,0.0,-999.0,100,-99.99,,,0.00,weatherlink.com 1.10,2013-10-21 01:51:00,
2013-10-21 05:06:00,48.8,49.0,30.30,ESE,120,0.0,-999.0,100,-99.99,,,0.00,weatherlink.com 1.10,2013-10-21 02:06:00,
2013-10-21 05:21:00,48.8,49.0,30.29,ESE,120,0.0,-999.0,100,-99.99,,,0.00,weatherlink.com 1.10,2013-10-21 02:21:00,
2013-10-21 05:37:00,49.1,49.0,30.29,ESE,120,0.0,-999.0,100,-99.99,,,0.00,weatherlink.com 1.10,2013-10-21 02:37:00,
2013-10-21 05:51:00,49.6,50.0,30.29,ESE,120,0.0,-999.0,100,-99.99,,,0.00,weatherlink.com 1.10,2013-10-21 02:51:00,
2013-10-21 06:06:00,50.2,50.0,30.29,South,176,3.0,-999.0,100,-99.99,,,0.00,weatherlink.com 1.10,2013-10-21 03:06:00,
2013-10-21 06:22:00,50.7,51.0,30.28,SSE,167,2.0,-999.0,100,-99.99,,,0.00,weatherlink.com 1.10,2013-10-21 03:22:00,
2013-10-21 06:37:00,50.7,51.0,30.28,SSE,168,0.0,-999.0,100,-99.99,,,0.00,weatherlink.com 1.10,2013-10-21 03:37:00,
2013-10-21 06:52:00,50.8,51.0,30.27,SSW,192,1.0,-999.0,100,-99.99,,,0.00,weatherlink.com 1.10,2013-10-21 03:52:00,
2013-10-21 07:07:00,51.0,51.0,30.27,South,181,0.0,-999.0,100,-99.99,,,0.00,weatherlink.com 1.10,2013-10-21 04:07:00,
2013-10-21 07:22:00,51.0,51.0,30.27,SSW,196,0.0,-999.0,100,-99.99,,,0.00,weatherlink.com 1.10,2013-10-21 04:22:00,
2013-10-21 07:37:00,51.1,51.0,30.27,SSW,199,0.0,-999.0,100,-99.99,,,0.00,weatherlink.com 1.10,2013-10-21 04:37:00,
2013-10-21 07:52:00,51.7,52.0,30.28,SSW,198,0.0,-999.0,100,-99.99,,,0.00,weatherlink.com 1.10,2013-10-21 04:52:00,
2013-10-21 08:07:00,52.9,53.0,30.28,SSW,203,0.0,-999.0,100,-99.99,,,0.00,weatherlink.com 1.10,2013-10-21 05:07:00,
2013-10-21 08:22:00,53.9,54.0,30.28,SW,219,0.0,-999.0,100,-99.99,,,0.00,weatherlink.com 1.10,2013-10-21 05:22:00,
2013-10-21 08:37:00,55.3,55.0,30.28,SSW,212,0.0,-999.0,100,-99.99,,,0.00,weatherlink.com 1.10,2013-10-21 05:37:00,
2013-10-21 08:52:00,56.6,57.0,30.28,SSE,161,5.0,-999.0,100,-99.99,,,0.00,weatherlink.com 1.10,2013-10-21 05:52:00,
2013-10-21 09:07:00,57.5,58.0,30.28,SSW,198,0.0,-999.0,100,-99.99,,,0.00,weatherlink.com 1.10,2013-10-21 06:07:00,
2013-10-21 09:22:00,58.6,59.0,30.28,SSW,192,5.0,-999.0,100,-99.99,,,0.00,weatherlink.com 1.10,2013-10-21 06:22:00,
2013-10-21 09:37:00,59.3,59.0,30.28,SSE,162,0.0,-999.0,100,-99.99,,,0.00,weatherlink.com 1.10,2013-10-21 06:37:00,
2013-10-21 09:52:00,59.9,60.0,30.28,SW,224,0.0,-999.0,100,-99.99,,,0.00,weatherlink.com 1.10,2013-10-21 06:52:00,
2013-10-21 10:07:00,61.0,61.0,30.28,SSW,202,0.0,-999.0,100,-99.99,,,0.00,weatherlink.com 1.10,2013-10-21 07:07:00,
2013-10-21 10:22:00,61.8,62.0,30.28,South,191,0.0,-999.0,100,-99.99,,,0.00,weatherlink.com 1.10,2013-10-21 07:22:00,
2013-10-21 10:37:00,62.3,62.0,30.28,SSE,150,0.0,-999.0,100,-99.99,,,0.00,weatherlink.com 1.10,2013-10-21 07:37:00,
2013-10-21 10:52:00,61.8,62.0,30.28,SE,134,5.0,-999.0,100,-99.99,,,0.00,weatherlink.com 1.10,2013-10-21 07:52:00,
2013-10-21 11:08:00,61.5,62.0,30.28,South,184,2.0,-999.0,100,-99.99,,,0.00,weatherlink.com 1.10,2013-10-21 08:08:00,
2013-10-21 11:23:00,62.4,62.0,30.28,SSE,148,5.0,-999.0,100,-99.99,,,0.00,weatherlink.com 1.10,2013-10-21 08:23:00,
2013-10-21 11:38:00,62.9,63.0,30.28,SSW,200,1.0,-999.0,100,-99.99,,,0.00,weatherlink.com 1.10,2013-10-21 08:38:00,
2013-10-21 11:53:00,63.7,64.0,30.28,SW,230,0.0,-999.0,100,-99.99,,,0.00,weatherlink.com 1.10,2013-10-21 08:53:00,
2013-10-21 12:08:00,64.5,65.0,30.27,SSW,212,5.0,-999.0,100,-99.99,,,0.00,weatherlink.com 1.10,2013-10-21 09:08:00,
2013-10-21 12:23:00,65.2,65.0,30.26,South,188,4.0,-999.0,100,-99.99,,,0.00,weatherlink.com 1.10,2013-10-21 09:23:00,
2013-10-21 12:38:00,65.8,66.0,30.26,SSW,210,0.0,-999.0,100,-99.99,,,0.00,weatherlink.com 1.10,2013-10-21 09:38:00,
2013-10-21 12:53:00,65.8,66.0,30.25,SE,140,0.0,-999.0,100,-99.99,,,0.00,weatherlink.com 1.10,2013-10-21 09:53:00,
2013-10-21 13:08:00,66.0,66.0,30.25,South,172,3.0,-999.0,100,-99.99,,,0.00,weatherlink.com 1.10,2013-10-21 10:08:00,
2013-10-21 13:23:00,66.3,66.0,30.25,SSE,165,3.0,-999.0,100,-99.99,,,0.00,weatherlink.com 1.10,2013-10-21 10:23:00,
2013-10-21 13:38:00,66.3,66.0,30.24,South,181,2.0,-999.0,100,-99.99,,,0.00,weatherlink.com 1.10,2013-10-21 10:38:00,
2013-10-21 13:53:00,66.6,67.0,30.23,WSW,257,0.0,-999.0,100,-99.99,,,0.00,weatherlink.com 1.10,2013-10-21 10:53:00,
2013-10-21 14:08:00,66.8,67.0,30.23,SE,133,5.0,-999.0,100,-99.99,,,0.00,weatherlink.com 1.10,2013-10-21 11:08:00,
2013-10-21 14:23:00,66.9,67.0,30.23,South,176,2.0,-999.0,100,-99.99,,,0.00,weatherlink.com 1.10,2013-10-21 11:23:00,
2013-10-21 14:38:00,67.3,67.0,30.22,SW,226,0.0,-999.0,100,-99.99,,,0.00,weatherlink.com 1.10,2013-10-21 11:38:00,
2013-10-21 14:53:00,66.6,67.0,30.22,South,176,0.0,-999.0,100,-99.99,,,0.00,weatherlink.com 1.10,2013-10-21 11:53:00,
2013-10-21 15:08:00,66.4,66.0,30.21,SSW,198,0.0,-999.0,100,-99.99,,,0.00,weatherlink.com 1.10,2013-10-21 12:08:00,
2013-10-21 15:23:00,66.4,66.0,30.21,SSE,162,6.0,-999.0,100,-99.99,,,0.00,weatherlink.com 1.10,2013-10-21 12:23:00,
2013-10-21 15:38:00,66.3,66.0,30.21,South,188,0.0,-999.0,100,-99.99,,,0.00,weatherlink.com 1.10,2013-10-21 12:38:00,
2013-10-21 15:53:00,66.6,67.0,30.21,SSW,196,3.0,-999.0,100,-99.99,,,0.00,weatherlink.com 1.10,2013-10-21 12:53:00,
2013-10-21 16:08:00,66.4,66.0,30.20,SSW,202,0.0,-999.0,100,-99.99,,,0.00,weatherlink.com 1.10,2013-10-21 13:08:00,
2013-10-21 16:23:00,66.3,66.0,30.20,South,171,2.0,-999.0,100,-99.99,,,0.00,weatherlink.com 1.10,2013-10-21 13:23:00,
2013-10-21 16:38:00,65.6,66.0,30.20,South,172,3.0,-999.0,100,-99.99,,,0.00,weatherlink.com 1.10,2013-10-21 13:38:00,
2013-10-21 16:53:00,65.2,65.0,30.20,South,189,0.0,-999.0,100,-99.99,,,0.00,weatherlink.com 1.10,2013-10-21 13:53:00,
2013-10-21 17:08:00,64.7,65.0,30.20,SSE,167,0.0,-999.0,100,-99.99,,,0.00,weatherlink.com 1.10,2013-10-21 14:08:00,
2013-10-21 17:23:00,64.0,64.0,30.20,South,182,0.0,-999.0,100,-99.99,,,0.00,weatherlink.com 1.10,2013-10-21 14:23:00,
2013-10-21 17:38:00,63.5,64.0,30.20,SSW,196,0.0,-999.0,100,-99.99,,,0.00,weatherlink.com 1.10,2013-10-21 14:38:00,
2013-10-21 17:53:00,62.9,63.0,30.20,South,189,0.0,-999.0,100,-99.99,,,0.00,weatherlink.com 1.10,2013-10-21 14:53:00,
2013-10-21 18:08:00,62.3,62.0,30.20,South,189,0.0,-999.0,100,-99.99,,,0.00,weatherlink.com 1.10,2013-10-21 15:08:00,
2013-10-21 18:23:00,61.5,62.0,30.20,South,174,0.0,-999.0,100,-99.99,,,0.00,weatherlink.com 1.10,2013-10-21 15:23:00,
2013-10-21 18:38:00,60.5,61.0,30.20,South,179,0.0,-999.0,100,-99.99,,,0.00,weatherlink.com 1.10,2013-10-21 15:38:00,
2013-10-21 18:53:00,59.8,60.0,30.20,South,184,0.0,-999.0,100,-99.99,,,0.00,weatherlink.com 1.10,2013-10-21 15:53:00,
2013-10-21 19:08:00,59.3,59.0,30.21,South,184,0.0,-999.0,100,-99.99,,,0.00,weatherlink.com 1.10,2013-10-21 16:08:00,
2013-10-21 19:23:00,58.9,59.0,30.21,South,184,0.0,-999.0,100,-99.99,,,0.00,weatherlink.com 1.10,2013-10-21 16:23:00,
2013-10-21 19:39:00,58.6,59.0,30.21,South,184,0.0,-999.0,100,-99.99,,,0.00,weatherlink.com 1.10,2013-10-21 16:39:00,
2013-10-21 19:54:00,58.3,58.0,30.21,South,184,0.0,-999.0,100,-99.99,,,0.00,weatherlink.com 1.10,2013-10-21 16:54:00,
2013-10-21 20:09:00,57.6,58.0,30.20,South,184,0.0,-999.0,100,-99.99,,,0.00,weatherlink.com 1.10,2013-10-21 17:09:00,
2013-10-21 20:24:00,57.6,58.0,30.20,South,184,0.0,-999.0,100,-99.99,,,0.00,weatherlink.com 1.10,2013-10-21 17:24:00,
2013-10-21 20:39:00,57.6,58.0,30.20,South,184,0.0,-999.0,100,-99.99,,,0.00,weatherlink.com 1.10,2013-10-21 17:39:00,
2013-10-21 20:54:00,57.3,57.0,30.20,South,184,0.0,-999.0,100,-99.99,,,0.00,weatherlink.com 1.10,2013-10-21 17:54:00,
2013-10-21 21:09:00,57.3,57.0,30.20,South,184,0.0,-999.0,100,-99.99,,,0.00,weatherlink.com 1.10,2013-10-21 18:09:00,
2013-10-21 21:24:00,56.7,57.0,30.20,South,184,0.0,-999.0,100,-99.99,,,0.00,weatherlink.com 1.10,2013-10-21 18:24:00,
2013-10-21 21:39:00,56.0,56.0,30.20,South,184,0.0,-999.0,100,-99.99,,,0.00,weatherlink.com 1.10,2013-10-21 18:39:00,
2013-10-21 21:54:00,56.0,56.0,30.20,South,184,1.0,-999.0,100,-99.99,,,0.00,weatherlink.com 1.10,2013-10-21 18:54:00,
2013-10-21 22:24:00,56.7,57.0,30.20,South,169,0.0,-999.0,100,-99.99,,,0.00,weatherlink.com 1.10,2013-10-21 19:24:00,
2013-10-21 22:39:00,56.7,57.0,30.19,SSW,193,0.0,-999.0,100,-99.99,,,0.00,weatherlink.com 1.10,2013-10-21 19:39:00,
2013-10-21 22:54:00,56.6,57.0,30.20,SSW,193,0.0,-999.0,100,-99.99,,,0.00,weatherlink.com 1.10,2013-10-21 19:54:00,
2013-10-21 23:09:00,56.3,56.0,30.20,SW,227,0.0,-999.0,100,-99.99,,,0.00,weatherlink.com 1.10,2013-10-21 20:09:00,
2013-10-21 23:24:00,56.2,56.0,30.20,SW,227,0.0,-999.0,100,-99.99,,,0.00,weatherlink.com 1.10,2013-10-21 20:24:00,
2013-10-21 23:54:00,56.0,56.0,30.19,SSW,196,0.0,-999.0,100,-99.99,,,0.00,weatherlink.com 1.10,2013-10-21 20:54:00,